Location: Nemiskam
(49.4820°N, 111.2775°W)
Time: 10:09:46
(UTC+00:00)

Envisat - Pass Details

Date: 02 December 2022
Orbit: 763 x 765 km, 98.2° (Epoch: 28 January)

Event Time Altitude Azimuth Distance (km) Brightness Sun altitude
Rises 13:16:30 0° 4° (N) 3,247 6.1 -16.2°
Reaches altitude 10° 13:19:20 10° 348° (NNW) 2,315 5.2 -15.8°
Enters shadow 13:22:04 19° 317° (NW) 1,748 4.4 -15.4°
